Tiempo cada hora Abbotsford

Hoy, 28 Octubre, Miércoles

Tiempo Temperatura Precipitaciones Viento Presión Humedad
00:00 +10°C° 0.2 mm 1 mps 758 mmHg 90%
01:00 +10°C° 0.2 mm 1 mps 758 mmHg 89%
02:00 +10°C° 0.2 mm 1 mps 758 mmHg 89%
03:00 +11°C° 0.2 mm 1 mps 757 mmHg 90%
04:00 +11°C° 0.2 mm 1 mps 757 mmHg 90%
05:00 +11°C° 0.1 mm 1 mps 757 mmHg 90%
06:00 +11°C° 0.1 mm 1 mps 757 mmHg 90%
07:00 +11°C° 0.1 mm 1 mps 757 mmHg 90%
08:00 +12°C° 0.3 mm 1 mps 757 mmHg 90%
09:00 +12°C° 0.3 mm 1 mps 757 mmHg 89%
10:00 +12°C° 0.3 mm 2 mps 757 mmHg 89%
11:00 +13°C° 0.1 mm 2 mps 757 mmHg 88%
12:00 +13°C° 0.1 mm 2 mps 757 mmHg 87%
13:00 +14°C° 0.1 mm 2 mps 757 mmHg 86%
14:00 +14°C° 0.1 mm 2 mps 757 mmHg 86%
15:00 +14°C° 0.1 mm 2 mps 756 mmHg 87%
16:00 +13°C° 0.1 mm 2 mps 756 mmHg 87%
17:00 +13°C° 0.1 mm 2 mps 756 mmHg 88%
18:00 +13°C° 0.1 mm 2 mps 756 mmHg 89%
19:00 +13°C° 0.1 mm 2 mps 757 mmHg 90%
20:00 +13°C° 0.1 mm 2 mps 757 mmHg 91%
21:00 +13°C° 0.1 mm 2 mps 757 mmHg 92%
22:00 +12°C° 0.1 mm 2 mps 757 mmHg 93%
23:00 +12°C° 0.1 mm 1 mps 757 mmHg 93%

Mañana, 29 Octubre, Jueves

Tiempo Temperatura Precipitaciones Viento Presión Humedad
00:00 +12°C° 0.1 mm 1 mps 757 mmHg 94%
01:00 +12°C° 0.1 mm 1 mps 756 mmHg 94%
02:00 +12°C° 0.1 mm 1 mps 757 mmHg 95%
03:00 +12°C° 0.1 mm 1 mps 757 mmHg 95%
04:00 +12°C° 0.1 mm 1 mps 757 mmHg 95%
05:00 +12°C° 0.1 mm 1 mps 757 mmHg 95%
06:00 +12°C° 0.1 mm 1 mps 757 mmHg 96%
07:00 +12°C° 0.1 mm 1 mps 757 mmHg 96%
08:00 +12°C° 0.1 mm 1 mps 757 mmHg 94%
09:00 +13°C° 0.1 mm 1 mps 757 mmHg 92%
10:00 +13°C° 0.1 mm 1 mps 757 mmHg 90%
11:00 +14°C° 0.1 mm 1 mps 757 mmHg 88%
12:00 +14°C° 0.1 mm 1 mps 757 mmHg 86%
13:00 +14°C° 0.1 mm 1 mps 756 mmHg 84%
14:00 +14°C° 0 mm 1 mps 756 mmHg 85%
15:00 +13°C° 0 mm 0 mps 755 mmHg 87%
16:00 +12°C° 0 mm 0 mps 755 mmHg 89%
17:00 +11°C° 0 mm 0 mps 755 mmHg 90%
18:00 +11°C° 0 mm 0 mps 754 mmHg 91%
19:00 +10°C° 0 mm 0 mps 754 mmHg 93%
20:00 +10°C° 0 mm 0 mps 754 mmHg 92%
21:00 +11°C° 0 mm 1 mps 753 mmHg 92%
22:00 +11°C° 0 mm 1 mps 753 mmHg 92%
23:00 +11°C° 0 mm 1 mps 752 mmHg 91%

Pasado mañana, 30 Octubre, Viernes

Tiempo Temperatura Precipitaciones Viento Presión Humedad
00:00 +11°C° 0 mm 1 mps 751 mmHg 90%
01:00 +11°C° 0 mm 1 mps 750 mmHg 89%
02:00 +10°C° 1.1 mm 2 mps 749 mmHg 91%
03:00 +10°C° 1.1 mm 3 mps 749 mmHg 92%
04:00 +10°C° 1.1 mm 3 mps 749 mmHg 94%
05:00 +10°C° 0.2 mm 4 mps 749 mmHg 93%
06:00 +10°C° 0.2 mm 4 mps 749 mmHg 93%
07:00 +10°C° 0.2 mm 4 mps 749 mmHg 92%
08:00 +10°C° 0.1 mm 4 mps 750 mmHg 89%
09:00 +10°C° 0.1 mm 4 mps 750 mmHg 87%
10:00 +11°C° 0.1 mm 4 mps 751 mmHg 84%
11:00 +11°C° 0.1 mm 3 mps 752 mmHg 81%
12:00 +11°C° 0.1 mm 3 mps 752 mmHg 77%
13:00 +11°C° 0.1 mm 3 mps 753 mmHg 74%
14:00 +12°C° 0.1 mm 2 mps 754 mmHg 76%
15:00 +12°C° 0.1 mm 2 mps 754 mmHg 78%
16:00 +11°C° 0.1 mm 1 mps 755 mmHg 80%
17:00 +10°C° 0 mm 1 mps 756 mmHg 82%
18:00 +9°C° 0 mm 1 mps 756 mmHg 85%
19:00 +8°C° 0 mm 1 mps 757 mmHg 87%
20:00 +7°C° 0 mm 0 mps 758 mmHg 86%
21:00 +7°C° 0 mm 0 mps 758 mmHg 85%
22:00 +7°C° 0 mm 0 mps 759 mmHg 85%
23:00 +6°C° 0 mm 0 mps 760 mmHg 85%

31 Octubre, Sábado

Tiempo Temperatura Precipitaciones Viento Presión Humedad
00:00 +6°C° 0 mm 0 mps 760 mmHg 85%
01:00 +6°C° 0 mm 0 mps 760 mmHg 85%
02:00 +6°C° 0 mm 0 mps 760 mmHg 85%
03:00 +5°C° 0 mm 0 mps 761 mmHg 86%
04:00 +6°C° 0 mm 1 mps 761 mmHg 87%
05:00 +5°C° 0 mm 0 mps 761 mmHg 87%
06:00 +5°C° 0 mm 0 mps 761 mmHg 86%
07:00 +5°C° 0 mm 0 mps 761 mmHg 86%
08:00 +6°C° 0 mm 0 mps 761 mmHg 81%
09:00 +8°C° 0 mm 0 mps 761 mmHg 75%
10:00 +10°C° 0 mm 0 mps 761 mmHg 69%
11:00 +11°C° 0 mm 0 mps 761 mmHg 67%
12:00 +11°C° 0 mm 0 mps 761 mmHg 64%
13:00 +13°C° 0 mm 1 mps 761 mmHg 62%
14:00 +12°C° 0 mm 1 mps 761 mmHg 67%
15:00 +10°C° 0 mm 0 mps 761 mmHg 72%
16:00 +10°C° 0 mm 0 mps 761 mmHg 77%
17:00 +8°C° 0 mm 0 mps 761 mmHg 81%
18:00 +8°C° 0 mm 1 mps 761 mmHg 84%
19:00 +7°C° 0 mm 1 mps 762 mmHg 88%
20:00 +7°C° 0 mm 1 mps 762 mmHg 86%
21:00 +7°C° 0 mm 1 mps 762 mmHg 84%
22:00 +7°C° 0 mm 1 mps 762 mmHg 82%
23:00 +7°C° 0 mm 1 mps 762 mmHg 80%

1 Noviembre, Domingo

Tiempo Temperatura Precipitaciones Viento Presión Humedad
00:00 +7°C° 0 mm 1 mps 762 mmHg 78%
01:00 +6°C° 0 mm 1 mps 762 mmHg 76%
02:00 +6°C° 0 mm 1 mps 762 mmHg 74%
03:00 +6°C° 0 mm 1 mps 762 mmHg 73%
04:00 +6°C° 0 mm 1 mps 762 mmHg 71%
05:00 +6°C° 0 mm 1 mps 762 mmHg 70%
06:00 +7°C° 0 mm 1 mps 761 mmHg 69%
07:00 +7°C° 0 mm 1 mps 761 mmHg 68%
08:00 +9°C° 0 mm 1 mps 761 mmHg 64%
09:00 +11°C° 0 mm 1 mps 761 mmHg 59%
10:00 +13°C° 0 mm 1 mps 761 mmHg 55%
11:00 +14°C° 0 mm 1 mps 760 mmHg 53%
12:00 +15°C° 0 mm 1 mps 760 mmHg 52%
13:00 +16°C° 0 mm 1 mps 759 mmHg 50%
14:00 +14°C° 0 mm 0 mps 759 mmHg 57%
15:00 +13°C° 0 mm 0 mps 759 mmHg 64%
16:00 +12°C° 0 mm 0 mps 759 mmHg 71%
17:00 +11°C° 0 mm 0 mps 760 mmHg 73%
18:00 +10°C° 0 mm 0 mps 760 mmHg 75%
19:00 +10°C° 0 mm 1 mps 760 mmHg 78%
20:00 +10°C° 0 mm 1 mps 760 mmHg 77%
21:00 +10°C° 0 mm 1 mps 760 mmHg 77%
22:00 +10°C° 0 mm 1 mps 759 mmHg 77%
23:00 +10°C° 0 mm 1 mps 759 mmHg 77%

2 Noviembre, Lunes

Tiempo Temperatura Precipitaciones Viento Presión Humedad
00:00 +10°C° 0 mm 1 mps 759 mmHg 78%
01:00 +10°C° 0 mm 1 mps 759 mmHg 78%
02:00 +9°C° 0 mm 1 mps 759 mmHg 78%
03:00 +9°C° 0 mm 1 mps 759 mmHg 78%
04:00 +9°C° 0 mm 1 mps 759 mmHg 78%
05:00 +9°C° 0 mm 1 mps 758 mmHg 77%
06:00 +9°C° 0 mm 1 mps 758 mmHg 76%
07:00 +9°C° 0 mm 1 mps 758 mmHg 75%
08:00 +11°C° 0 mm 1 mps 757 mmHg 69%
09:00 +12°C° 0 mm 0 mps 757 mmHg 64%
10:00 +14°C° 0 mm 0 mps 756 mmHg 58%
11:00 +15°C° 0 mm 0 mps 756 mmHg 56%
12:00 +16°C° 0 mm 0 mps 755 mmHg 54%
13:00 +18°C° 0 mm 0 mps 755 mmHg 52%
14:00 +16°C° 0 mm 0 mps 754 mmHg 59%
15:00 +15°C° 0 mm 0 mps 754 mmHg 66%
16:00 +14°C° 0 mm 0 mps 754 mmHg 73%
17:00 +13°C° 0 mm 0 mps 753 mmHg 70%
18:00 +13°C° 0 mm 1 mps 753 mmHg 68%
19:00 +12°C° 0 mm 1 mps 753 mmHg 65%
20:00 +12°C° 0 mm 1 mps 753 mmHg 63%
21:00 +13°C° 0 mm 1 mps 752 mmHg 62%
22:00 +13°C° 0 mm 1 mps 752 mmHg 60%
23:00 +13°C° 0.1 mm 1 mps 752 mmHg 64%
Mostrar más

Necesitamos Su Consentimiento

Meteoprog y nuestros Proveedores de Servicios pueden almacenar y acceder a sus datos personales como cookies, identificadores de dispositivo u otras tecnologías similares de su dispositivo y procesar dichos datos para personalizar contenido y anuncios, además de ofrecer funciones de redes sociales y analizar el tráfico.

  • Almacenar y/o acceder a información en su dispositivo

    Se puede almacenar o acceder a cookies, identificadores de dispositivo u otra información de su dispositivo para los fines anteriormente indicados.

  • Anuncios y contenido personalizados, medición de anuncios y contenido, percepciones del público, y desarrollo de productos

    Los anuncios y el contenido pueden personalizarse en base a su perfil. Se pueden añadir más datos para personalizar mejor los anuncios y contenidos. Se puede medir el rendimiento de los anuncios y contenidos. Se puede obtener la percepción sobre el público que ha visto los anuncios y contenidos. Dichos datos pueden usarse para desarrollar o mejorar la experiencia del usuario, sistemas y software.

Al hacer clic en ‘Estoy De Acuerdo’ usted permitirá el uso de las cookies, identificadores de dispositivo, balizas web u otras tecnologías similares indicadas. Su configuración puede cambiarse desde el navegador de su dispositivo.

Para ciertos fines, los intereses legítimos pueden ser considerados por encima del consentimiento. Puede leer más sobre ello en nuestra Política de Privacidad y Cookies.